Epoch,demod_status_bits,ebno,lock_status,signal_level,viterbi_ber
1664354671,,0.0,0xc0504d,-49.9,
1664354672,-;-;-;-,,0xc0504d,-49.9,-1e-7
1664354673,-;-;-;-,0.0,0xc0504d,-39.4,-1e-7
1664354674,C;S;V;F,0.4,0x00c000,,19.74e-2
1664354675,C;S;V;F,13.6,0x00c000,-37.7,15.44e-2
1664354676,C;S;V;F,13.4,0x00c000,-37.9,0.00e-0
1664354677,C;S;V;F,13.4,0x00c000,-38.0,0.00e-0
1664354678,C;S;V;F,13.4,0x00c000,-38.0,0.00e-0
1664354679,C;S;V;F,13.6,0x00c000,-37.9,0.00e-0
1664354680,C;S;V;F,13.6,0x00c000,-37.6,0.00e-0
1664354681,C;S;V;F,13.6,0x00c000,-37.5,0.00e-0
1664354682,C;S;V;F,13.7,0x00c000,-37.8,0.00e-0
1664354683,C;S;V;F,13.4,0x00c000,-37.8,0.00e-0
1664354684,C;S;V;F,13.8,0x00c000,-37.8,0.00e-0
1664354685,,13.9,0x00c000,-37.3,
1664354686,C;S;V;F,14.0,0x00c000,-37.7,0.00e-0
1664354687,C;S;V;F,,0x00c000,-37.8,0.00e-0
1664354688,C;S;V;F,13.5,0x00c000,-37.8,0.00e-0
1664354689,C;S;V;F,13.8,0x00c000,-37.8,0.00e-0
1664354690,C;S;V;F,13.9,0x00c000,,0.00e-0
1664354691,C;S;V;F,13.9,0x00c000,-37.6,0.00e-0
1664354695,C;S;V;F,14.3,0x00c000,-37.4,0.00e-0
1664354696,C;S;V;F,14.1,0x00c000,-37.2,0.00e-0
1664354697,C;S;V;F,14.4,0x00c000,-37.2,0.00e-0
1664354698,C;S;V;F,14.3,0x00c000,-37.4,
1664354699,,14.3,0x00c000,-37.2,0.00e-0
1664354700,C;S;V;F,14.1,0x00c000,-37.3,0.00e-0
1664354701,C;S;V;F,14.4,0x00c000,-37.1,0.00e-0
1664354702,C;S;V;F,14.2,0x00c000,-37.3,0.00e-0
1664354703,C;S;V;F,,0x00c000,-37.4,0.00e-0
1664354704,C;S;V;F,14.4,0x00c000,-37.5,0.00e-0
1664354705,C;S;V;F,14.2,0x00c000,,0.00e-0
1664354706,C;S;V;F,14.3,0x00c000,-37.5,0.00e-0
1664354707,C;S;V;F,14.3,0x00c000,-37.3,0.00e-0
1664354708,C;S;V;F,14.4,0x00c000,-37.5,0.00e-0
1664354709,C;S;V;F,14.3,0x00c000,-37.4,0.00e-0
1664354710,C;S;V;F,14.3,0x00c000,-37.3,0.00e-0
1664354711,C;S;V;F,14.4,0x00c000,-37.4,0.00e-0
1664354712,C;S;V;F,14.4,0x00c000,-37.3,0.00e-0
1664354713,C;S;V;F,14.3,0x00c000,-37.3,0.00e-0
1664354714,C;S;V;F,14.2,0x00c000,-37.3,0.00e-0
1664354715,C;S;V;F,14.4,0x00c000,-37.2,
1664354716,,14.4,0x00c000,-37.5,0.00e-0
1664354717,C;S;V;F,14.3,0x00c000,-37.4,0.00e-0
1664354718,C;S;V;F,14.3,0x00c000,-37.2,0.00e-0
1664354719,C;S;V;F,,0x00c000,-37.4,0.00e-0
1664354720,C;S;V;F,14.3,0x00c000,,0.00e-0
1664354721,C;S;V;F,14.3,0x00c000,-37.5,0.00e-0
1664354722,C;S;V;F,14.4,0x00c000,-37.2,0.00e-0
1664354723,C;S;V;F,14.4,0x00c000,-37.5,0.00e-0
1664354724,C;S;V;F,14.4,0x00c000,-37.5,0.00e-0
1664354725,,14.7,0x00c000,-37.3,
1664354726,C;S;V;F,,0x00c000,,0.00e-0
1664354727,C;S;V;F,14.7,0x00c000,-37.2,0.00e-0
1664354729,C;S;V;F,14.5,0x00c000,-37.2,0.00e-0
1664354730,C;S;V;F,14.6,0x00c000,-37.2,
1664354731,,14.6,0x00c000,-37.1,0.00e-0
1664354732,C;S;V;F,14.8,0x00c000,-37.2,0.00e-0
1664354733,C;S;V;F,14.8,0x00c000,-37.1,0.00e-0
1664354734,C;S;V;F,,0x00c000,-36.8,0.00e-0
1664354735,C;S;V;F,15.0,0x00c000,-36.8,0.00e-0
1664354736,C;S;V;F,15.0,0x00c000,-36.8,0.00e-0
1664354737,C;S;V;F,14.9,0x00c000,,0.00e-0
1664354738,C;S;V;F,15.2,0x00c000,-36.6,0.00e-0
1664354739,C;S;V;F,15.1,0x00c000,-36.7,0.00e-0
1664354740,C;S;V;F,15.4,0x00c000,-36.7,0.00e-0
1664354741,C;S;V;F,15.0,0x00c000,-36.7,0.00e-0
1664354742,C;S;V;F,15.1,0x00c000,-36.5,0.00e-0
1664354743,C;S;V;F,15.1,0x00c000,-36.5,0.00e-0
1664354744,C;S;V;F,15.3,0x00c000,-36.4,0.00e-0
1664354745,C;S;V;F,15.5,0x00c000,-36.4,0.00e-0
1664354746,C;S;V;F,15.3,0x00c000,-36.4,0.00e-0
1664354747,C;S;V;F,15.4,0x00c000,-36.5,0.00e-0
1664354748,C;S;V;F,15.5,0x00c000,-36.3,0.00e-0
1664354749,C;S;V;F,15.5,0x00c000,-36.3,0.00e-0
1664354750,C;S;V;F,15.5,0x00c000,-36.2,
1664354751,,15.7,0x00c000,-36.3,0.00e-0
1664354752,C;S;V;F,15.8,0x00c000,-36.2,0.00e-0
1664354753,C;S;V;F,15.7,0x00c000,-36.2,0.00e-0
1664354754,C;S;V;F,,0x00c000,-36.3,0.00e-0
1664354755,C;S;V;F,15.6,0x00c000,,0.00e-0
1664354756,C;S;V;F,15.9,0x00c000,-36.2,0.00e-0
1664354757,C;S;V;F,15.7,0x00c000,-36.2,0.00e-0
1664354758,C;S;V;F,15.6,0x00c000,-36.3,0.00e-0
1664354759,C;S;V;F,15.5,0x00c000,-36.3,0.00e-0
1664354760,C;S;V;F,15.6,0x00c000,-36.3,0.00e-0
1664354761,C;S;V;F,15.5,0x00c000,-36.4,0.00e-0
1664354762,C;S;V;F,15.6,0x00c000,-36.3,0.00e-0
1664354763,C;S;V;F,15.5,0x00c000,-36.3,0.00e-0
1664354764,C;S;V;F,15.7,0x00c000,-36.3,0.00e-0
1664354765,C;S;V;F,15.9,0x00c000,-36.3,
1664354766,,15.7,0x00c000,-36.3,0.00e-0
1664354767,C;S;V;F,15.7,0x00c000,-36.2,0.00e-0
1664354768,C;S;V;F,15.8,0x00c000,-36.3,0.00e-0
1664354769,C;S;V;F,15.7,0x00c000,-36.3,0.00e-0
1664354770,C;S;V;F,15.8,0x00c000,-36.3,0.00e-0
1664354771,C;S;V;F,,0x00c000,-36.2,0.00e-0
1664354772,C;S;V;F,15.8,0x00c000,-36.1,0.00e-0
1664354773,C;S;V;F,15.7,0x00c000,,0.00e-0
1664354774,C;S;V;F,16.0,0x00c000,-36.0,0.00e-0
1664354775,C;S;V;F,16.1,0x00c000,-35.9,0.00e-0
1664354776,C;S;V;F,16.1,0x00c000,-36.0,0.00e-0
1664354777,C;S;V;F,16.0,0x00c000,-35.9,0.00e-0
1664354778,C;S;V;F,16.1,0x00c000,-35.7,0.00e-0
1664354779,C;S;V;F,15.9,0x00c000,-35.8,0.00e-0
1664354780,C;S;V;F,16.1,0x00c000,-35.9,0.00e-0
1664354781,C;S;V;F,16.1,0x00c000,-35.9,0.00e-0
1664354782,C;S;V;F,16.0,0x00c000,-35.8,0.00e-0
1664354783,C;S;V;F,16.1,0x00c000,-35.8,0.00e-0
1664354784,C;S;V;F,16.1,0x00c000,-36.1,0.00e-0
1664354785,C;S;V;F,16.0,0x00c000,-36.0,
1664354786,,16.0,0x00c000,-35.9,0.00e-0
1664354787,C;S;V;F,15.9,0x00c000,-35.9,0.00e-0
1664354788,C;S;V;F,15.9,0x00c000,-35.9,0.00e-0
1664354789,C;S;V;F,16.0,0x00c000,-36.0,0.00e-0
1664354790,C;S;V;F,,0x00c000,-36.0,0.00e-0
1664354791,C;S;V;F,16.1,0x00c000,,0.00e-0
1664354793,C;S;V;F,15.9,0x00c000,-36.1,0.00e-0
1664354794,C;S;V;F,15.8,0x00c000,-36.3,0.00e-0
1664354795,C;S;V;F,16.1,0x00c000,-36.1,0.00e-0
1664354796,C;S;V;F,15.7,0x00c000,-36.2,0.00e-0
1664354797,C;S;V;F,15.7,0x00c000,-36.4,0.00e-0
1664354798,C;S;V;F,15.7,0x00c000,-36.4,0.00e-0
1664354799,C;S;V;F,15.6,0x00c000,-36.4,0.00e-0
1664354800,C;S;V;F,15.8,0x00c000,-36.3,0.00e-0
1664354801,C;S;V;F,15.8,0x00c000,-36.2,0.00e-0
1664354802,C;S;V;F,15.9,0x00c000,-36.3,
1664354803,,15.9,0x00c000,-36.1,0.00e-0
1664354804,C;S;V;F,16.0,0x00c000,-36.3,0.00e-0
1664354805,C;S;V;F,16.1,0x00c000,-36.1,0.00e-0
1664354806,C;S;V;F,15.8,0x00c000,-36.3,0.00e-0
1664354807,C;S;V;F,,0x00c000,-36.3,0.00e-0
1664354808,C;S;V;F,16.1,0x00c000,-36.3,0.00e-0
1664354809,C;S;V;F,15.8,0x00c000,,0.00e-0
1664354810,C;S;V;F,15.6,0x00c000,-36.3,0.00e-0
1664354811,C;S;V;F,15.6,0x00c000,-36.4,0.00e-0
1664354812,C;S;V;F,15.6,0x00c000,-36.4,0.00e-0
1664354813,C;S;V;F,15.7,0x00c000,-36.4,0.00e-0
1664354814,C;S;V;F,15.5,0x00c000,-36.6,0.00e-0
1664354815,C;S;V;F,15.4,0x00c000,-36.6,
1664354816,C;S;V;F,15.4,0x00c000,-36.6,0.00e-0
1664354817,,15.7,0x00c000,-36.4,0.00e-0
1664354818,C;S;V;F,15.7,0x00c000,-36.4,0.00e-0
1664354819,C;S;V;F,15.7,0x00c000,-36.4,0.00e-0
1664354820,C;S;V;F,15.7,0x00c000,-36.4,0.00e-0
1664354821,C;S;V;F,,0x00c000,-36.3,0.00e-0
1664354822,C;S;V;F,15.8,0x00c000,-36.3,0.00e-0
1664354823,C;S;V;F,15.8,0x00c000,,0.00e-0
1664354824,C;S;V;F,15.9,0x00c000,-36.1,0.00e-0
1664354825,C;S;V;F,15.9,0x00c000,-36.2,0.00e-0
1664354826,C;S;V;F,15.9,0x00c000,-36.1,0.00e-0
1664354827,C;S;V;F,15.9,0x00c000,-36.0,0.00e-0
1664354828,C;S;V;F,15.9,0x00c000,-36.1,0.00e-0
1664354829,C;S;V;F,15.9,0x00c000,-36.0,0.00e-0
1664354830,C;S;V;F,16.2,0x00c000,-35.9,0.00e-0
1664354831,C;S;V;F,16.2,0x00c000,-35.9,0.00e-0
1664354832,C;S;V;F,16.2,0x00c000,-35.9,0.00e-0
1664354833,C;S;V;F,16.2,0x00c000,-35.8,0.00e-0
1664354834,C;S;V;F,16.2,0x00c000,-35.9,
1664354835,,16.0,0x00c000,-35.8,0.00e-0
1664354836,C;S;V;F,16.2,0x00c000,-35.8,0.00e-0
1664354837,C;S;V;F,16.3,0x00c000,-35.9,0.00e-0
1664354838,C;S;V;F,,0x00c000,-35.6,0.00e-0
1664354839,C;S;V;F,16.2,0x00c000,,0.00e-0
1664354840,C;S;V;F,16.5,0x00c000,-35.6,0.00e-0
1664354841,C;S;V;F,16.7,0x00c000,-35.7,0.00e-0
1664354842,C;S;V;F,16.6,0x00c000,-35.5,0.00e-0
1664354843,C;S;V;F,16.3,0x00c000,-35.8,0.00e-0
1664354844,C;S;V;F,16.3,0x00c000,-35.7,0.00e-0
1664354845,C;S;V;F,16.1,0x00c000,-35.6,0.00e-0
1664354846,C;S;V;F,16.4,0x00c000,-35.8,0.00e-0
1664354847,C;S;V;F,16.5,0x00c000,-35.4,0.00e-0
1664354848,C;S;V;F,16.7,0x00c000,-35.4,
1664354849,,16.8,0x00c000,-35.2,0.00e-0
1664354850,C;S;V;F,16.5,0x00c000,-35.3,0.00e-0
1664354851,C;S;V;F,16.6,0x00c000,-35.3,0.00e-0
1664354852,C;S;V;F,16.8,0x00c000,-35.4,0.00e-0
1664354853,C;S;V;F,,0x00c000,,0.00e-0
1664354855,,16.6,0x00c000,-35.5,
1664354856,C;S;V;F,,0x00c000,-35.5,0.00e-0
1664354857,C;S;V;F,16.4,0x00c000,-35.4,0.00e-0
1664354858,C;S;V;F,16.3,0x00c000,,0.00e-0
1664354859,C;S;V;F,16.4,0x00c000,-35.2,0.00e-0
1664354860,C;S;V;F,16.4,0x00c000,-35.5,0.00e-0
1664354861,C;S;V;F,16.3,0x00c000,-35.6,0.00e-0
1664354862,C;S;V;F,16.2,0x00c000,-35.8,0.00e-0
1664354863,C;S;V;F,16.1,0x00c000,-35.6,0.00e-0
1664354864,C;S;V;F,16.2,0x00c000,-35.9,0.00e-0
1664354865,C;S;V;F,16.3,0x00c000,-36.0,0.00e-0
1664354866,C;S;V;F,15.9,0x00c000,-36.0,0.00e-0
1664354867,C;S;V;F,16.0,0x00c000,-36.1,0.00e-0
1664354868,C;S;V;F,16.2,0x00c000,-36.1,0.00e-0
1664354869,C;S;V;F,15.9,0x00c000,-36.2,0.00e-0
1664354870,C;S;V;F,15.8,0x00c000,-36.2,
1664354871,,16.0,0x00c000,-36.3,0.00e-0
1664354872,C;S;V;F,15.9,0x00c000,-36.3,0.00e-0
1664354873,C;S;V;F,15.9,0x00c000,-36.4,0.00e-0
1664354874,C;S;V;F,16.2,0x00c000,-36.2,0.00e-0
1664354875,C;S;V;F,,0x00c000,-36.2,0.00e-0
1664354876,C;S;V;F,16.0,0x00c000,-36.1,0.00e-0
1664354877,C;S;V;F,16.2,0x00c000,,0.00e-0
1664354878,C;S;V;F,16.2,0x00c000,-36.0,0.00e-0
1664354879,C;S;V;F,16.2,0x00c000,-36.1,0.00e-0
1664354880,C;S;V;F,16.2,0x00c000,-35.7,0.00e-0
1664354881,C;S;V;F,16.2,0x00c000,-35.6,0.00e-0
1664354882,C;S;V;F,16.4,0x00c000,-35.6,0.00e-0
1664354883,C;S;V;F,16.4,0x00c000,-35.6,0.00e-0
1664354884,C;S;V;F,16.2,0x00c000,-35.6,0.00e-0
1664354885,C;S;V;F,16.4,0x00c000,-35.6,0.00e-0
1664354886,C;S;V;F,16.5,0x00c000,-35.6,0.00e-0
1664354887,C;S;V;F,16.7,0x00c000,-35.7,0.00e-0
1664354888,C;S;V;F,16.5,0x00c000,-35.2,
1664354889,,16.9,0x00c000,-35.1,0.00e-0
1664354890,C;S;V;F,16.8,0x00c000,-34.9,0.00e-0
1664354891,C;S;V;F,17.1,0x00c000,-34.8,0.00e-0
1664354892,C;S;V;F,17.1,0x00c000,-34.7,0.00e-0
1664354893,C;S;V;F,,0x00c000,-34.7,0.00e-0
1664354894,C;S;V;F,17.0,0x00c000,,0.00e-0
1664354895,C;S;V;F,17.3,0x00c000,-34.7,0.00e-0
1664354896,C;S;V;F,17.3,0x00c000,-34.5,0.00e-0
1664354897,C;S;V;F,17.2,0x00c000,-34.7,0.00e-0
1664354898,C;S;V;F,17.0,0x00c000,-34.8,0.00e-0
1664354899,C;S;V;F,17.0,0x00c000,-34.8,0.00e-0
1664354900,C;S;V;F,17.2,0x00c000,-34.9,0.00e-0
1664354901,C;S;V;F,17.0,0x00c000,-34.8,0.00e-0
1664354902,C;S;V;F,16.9,0x00c000,-34.8,0.00e-0
1664354903,C;S;V;F,17.0,0x00c000,-34.8,0.00e-0
1664354904,C;S;V;F,17.1,0x00c000,-34.8,0.00e-0
1664354905,C;S;V;F,17.4,0x00c000,-34.8,0.00e-0
1664354906,C;S;V;F,17.1,0x00c000,-34.8,0.00e-0
1664354907,,17.2,0x00c000,-34.8,
1664354908,C;S;V;F,17.2,0x00c000,-34.7,0.00e-0
1664354909,C;S;V;F,17.3,0x00c000,-34.8,0.00e-0
1664354910,C;S;V;F,,0x00c000,-34.8,0.00e-0
1664354911,C;S;V;F,17.4,0x00c000,,0.00e-0
1664354912,C;S;V;F,17.2,0x00c000,-34.6,0.00e-0
1664354913,C;S;V;F,17.0,0x00c000,-34.6,0.00e-0
1664354914,C;S;V;F,17.0,0x00c000,-34.7,0.00e-0
1664354915,C;S;V;F,17.2,0x00c000,-34.8,0.00e-0
1664354916,C;S;V;F,17.1,0x00c000,-34.8,0.00e-0
1664354918,,16.8,0x00c000,-35.5,
1664354919,C;S;V;F,16.4,0x00c000,-35.6,0.00e-0
1664354920,C;S;V;F,16.6,0x00c000,-35.8,0.00e-0
1664354921,C;S;V;F,,0x00c000,-35.8,0.00e-0
1664354922,C;S;V;F,16.3,0x00c000,,0.00e-0
1664354923,C;S;V;F,16.5,0x00c000,-35.6,0.00e-0
1664354924,C;S;V;F,16.3,0x00c000,-35.7,0.00e-0
1664354925,C;S;V;F,16.3,0x00c000,-35.7,0.00e-0
1664354926,C;S;V;F,16.3,0x00c000,-35.9,0.00e-0
1664354927,C;S;V;F,16.0,0x00c000,-36.1,0.00e-0
1664354928,C;S;V;F,15.9,0x00c000,-36.3,0.00e-0
1664354929,C;S;V;F,15.9,0x00c000,-36.4,0.00e-0
1664354930,C;S;V;F,15.9,0x00c000,-36.5,0.00e-0
1664354931,C;S;V;F,15.9,0x00c000,-36.6,0.00e-0
1664354932,C;S;V;F,15.7,0x00c000,-36.4,
1664354933,,15.8,0x00c000,-36.7,0.00e-0
1664354934,C;S;V;F,15.6,0x00c000,-36.5,0.00e-0
1664354935,C;S;V;F,15.7,0x00c000,-36.5,0.00e-0
1664354936,C;S;V;F,15.8,0x00c000,-36.8,0.00e-0
1664354937,C;S;V;F,15.5,0x00c000,-36.8,0.00e-0
1664354938,C;S;V;F,,0x00c000,-37.0,0.00e-0
1664354939,C;S;V;F,15.5,0x00c000,,0.00e-0
1664354940,C;S;V;F,15.3,0x00c000,-37.0,0.00e-0
1664354941,C;S;V;F,15.2,0x00c000,-37.1,0.00e-0
1664354942,C;S;V;F,15.2,0x00c000,-37.1,0.00e-0
1664354943,C;S;V;F,15.2,0x00c000,-37.1,0.00e-0
1664354944,C;S;V;F,15.3,0x00c000,-36.8,0.00e-0
1664354945,C;S;V;F,15.6,0x00c000,-36.4,0.00e-0
1664354946,C;S;V;F,15.7,0x00c000,-36.4,0.00e-0
1664354947,C;S;V;F,15.9,0x00c000,-36.4,0.00e-0
1664354948,C;S;V;F,16.0,0x00c000,-36.3,0.00e-0
1664354949,C;S;V;F,16.0,0x00c000,-36.2,0.00e-0
1664354950,C;S;V;F,16.0,0x00c000,-36.3,
1664354951,,16.2,0x00c000,-36.2,0.00e-0
1664354952,C;S;V;F,16.0,0x00c000,-36.3,0.00e-0
1664354953,C;S;V;F,16.1,0x00c000,-36.0,0.00e-0
1664354954,C;S;V;F,16.2,0x00c000,-36.0,0.00e-0
1664354955,C;S;V;F,,0x00c000,-35.9,0.00e-0
1664354956,C;S;V;F,16.0,0x00c000,,0.00e-0
1664354957,C;S;V;F,16.1,0x00c000,-36.2,0.00e-0
1664354958,C;S;V;F,16.0,0x00c000,-36.1,0.00e-0
1664354959,C;S;V;F,16.1,0x00c000,-36.1,0.00e-0
1664354960,C;S;V;F,16.0,0x00c000,-36.4,0.00e-0
1664354961,C;S;V;F,16.1,0x00c000,-36.3,0.00e-0
1664354962,C;S;V;F,16.2,0x00c000,-36.3,0.00e-0
1664354963,C;S;V;F,16.0,0x00c000,-36.6,0.00e-0
1664354964,C;S;V;F,16.0,0x00c000,-36.3,0.00e-0
1664354965,C;S;V;F,16.2,0x00c000,-36.1,0.00e-0
1664354966,C;S;V;F,16.1,0x00c000,-36.1,0.00e-0
1664354967,C;S;V;F,16.1,0x00c000,-36.3,0.00e-0
1664354968,C;S;V;F,16.0,0x00c000,-36.4,0.00e-0
1664354969,C;S;V;F,15.8,0x00c000,-36.4,
1664354970,,15.6,0x00c000,-36.8,0.00e-0
1664354971,C;S;V;F,15.7,0x00c000,-36.7,0.00e-0
1664354972,C;S;V;F,15.7,0x00c000,-36.6,0.00e-0
1664354973,C;S;V;F,,0x00c000,-37.0,0.00e-0
1664354974,C;S;V;F,15.6,0x00c000,,0.00e-0
1664354975,C;S;V;F,15.6,0x00c000,-37.0,0.00e-0
1664354976,C;S;V;F,15.5,0x00c000,-37.0,0.00e-0
1664354977,C;S;V;F,15.8,0x00c000,-36.4,0.00e-0
1664354978,C;S;V;F,16.0,0x00c000,-36.4,0.00e-0
1664354980,C;S;V;F,15.9,0x00c000,-36.2,0.00e-0
1664354981,,15.9,0x00c000,-36.4,
1664354982,C;S;V;F,16.1,0x00c000,-36.4,0.00e-0
1664354983,C;S;V;F,16.0,0x00c000,-36.4,0.00e-0
1664354984,C;S;V;F,,0x00c000,-36.4,0.00e-0
1664354985,C;S;V;F,15.8,0x00c000,-36.4,0.00e-0
1664354986,C;S;V;F,15.9,0x00c000,-36.0,0.00e-0
1664354987,C;S;V;F,16.0,0x00c000,-36.0,0.00e-0
1664354988,C;S;V;F,16.1,0x00c000,,0.00e-0
1664354989,C;S;V;F,16.4,0x00c000,-35.8,0.00e-0
1664354990,C;S;V;F,16.4,0x00c000,-35.9,0.00e-0
1664354991,C;S;V;F,16.4,0x00c000,-35.8,0.00e-0
1664354992,C;S;V;F,16.3,0x00c000,-35.8,0.00e-0
1664354993,C;S;V;F,16.2,0x00c000,-36.1,0.00e-0
1664354994,C;S;V;F,15.9,0x00c000,-36.3,0.00e-0
1664354997,,,0x00c000,-36.4,
1664354998,C;S;V;F,15.6,0x00c000,,0.00e-0
1664354999,C;S;V;F,15.8,0x00c000,-36.4,0.00e-0
1664355000,C;S;V;F,15.8,0x00c000,-36.5,0.00e-0
1664355001,C;S;V;F,15.9,0x00c000,-36.6,0.00e-0
1664355002,C;S;V;F,15.6,0x00c000,-36.7,0.00e-0
1664355003,C;S;V;F,15.3,0x00c000,-37.2,0.00e-0
1664355004,C;S;V;F,14.9,0x00c000,-37.4,0.00e-0
1664355005,C;S;V;F,14.7,0x00c000,-37.7,0.00e-0
1664355006,C;S;V;F,14.7,0x00c000,-37.8,0.00e-0
1664355007,C;S;V;F,14.8,0x00c000,-37.7,0.00e-0
1664355008,C;S;V;F,14.8,0x00c000,-37.7,0.00e-0
1664355009,C;S;V;F,14.7,0x00c000,-37.8,
1664355010,,14.5,0x00c000,-37.6,0.00e-0
1664355011,C;S;V;F,15.0,0x00c000,-37.5,0.00e-0
1664355012,C;S;V;F,15.2,0x00c000,-37.3,0.00e-0
1664355013,C;S;V;F,,0x00c000,-37.2,0.00e-0
1664355014,C;S;V;F,15.2,0x00c000,,0.00e-0
1664355015,C;S;V;F,15.0,0x00c000,-37.5,0.00e-0
1664355016,C;S;V;F,15.0,0x00c000,-37.5,0.00e-0
1664355017,C;S;V;F,14.7,0x00c000,-37.7,0.00e-0
1664355018,C;S;V;F,14.8,0x00c000,-37.5,0.00e-0
1664355019,C;S;V;F,15.0,0x00c000,-37.5,0.00e-0
1664355020,C;S;V;F,14.9,0x00c000,-37.2,0.00e-0
1664355021,C;S;V;F,15.3,0x00c000,-37.0,0.00e-0
1664355022,C;S;V;F,15.6,0x00c000,-37.0,0.00e-0
1664355023,C;S;V;F,15.6,0x00c000,-37.0,
1664355024,,15.7,0x00c000,-36.7,0.00e-0
1664355025,C;S;V;F,15.9,0x00c000,-36.4,0.00e-0
1664355026,C;S;V;F,,,,0.00e-0
1664355027,C;S;V;F,16.0,0x00c000,-36.3,0.00e-0
1664355028,C;S;V;F,15.8,0x00c000,-36.5,0.00e-0
1664355029,C;S;V;F,15.7,0x00c000,-36.5,
1664355030,,15.9,0x00c000,-36.5,0.00e-0
1664355031,C;S;V;F,16.2,0x00c000,-36.3,0.00e-0
1664355032,C;S;V;F,15.9,0x00c000,-36.4,0.00e-0
1664355033,C;S;V;F,,0x00c000,-36.5,0.00e-0
1664355034,C;S;V;F,15.7,0x00c000,,0.00e-0
1664355035,C;S;V;F,15.7,0x00c000,-36.7,0.00e-0
1664355036,C;S;V;F,15.7,0x00c000,-36.8,0.00e-0
1664355037,C;S;V;F,15.7,0x00c000,-37.1,0.00e-0
1664355038,C;S;V;F,15.7,0x00c000,-36.8,0.00e-0
1664355039,C;S;V;F,15.7,0x00c000,-36.8,0.00e-0
1664355040,C;S;V;F,15.6,0x00c000,-36.6,0.00e-0
1664355041,C;S;V;F,15.7,0x00c000,-36.4,0.00e-0
1664355044,C;S;V;F,15.6,0x00c000,-36.4,0.00e-0
1664355045,C;S;V;F,15.9,0x00c000,-36.3,0.00e-0
1664355046,C;S;V;F,15.8,0x00c000,-36.3,0.00e-0
1664355047,C;S;V;F,15.8,0x00c000,-36.4,0.00e-0
1664355048,C;S;V;F,15.8,0x00c000,-36.5,0.00e-0
1664355049,C;S;V;F,15.6,0x00c000,-36.7,0.00e-0
1664355050,C;S;V;F,15.7,0x00c000,-36.6,0.00e-0
1664355051,C;S;V;F,15.8,0x00c000,-36.5,0.00e-0
1664355052,,16.0,0x00c000,-36.1,
1664355053,C;S;V;F,16.4,0x00c000,-35.9,0.00e-0
1664355054,C;S;V;F,16.3,0x00c000,-36.0,0.00e-0
1664355055,C;S;V;F,16.0,0x00c000,-36.3,0.00e-0
1664355056,C;S;V;F,,0x00c000,-36.4,0.00e-0
1664355057,C;S;V;F,15.9,0x00c000,,0.00e-0
1664355058,C;S;V;F,15.8,0x00c000,-36.4,0.00e-0
1664355059,C;S;V;F,15.5,0x00c000,-36.7,0.00e-0
1664355060,C;S;V;F,15.5,0x00c000,-36.8,0.00e-0
1664355061,C;S;V;F,15.7,0x00c000,-36.8,0.00e-0
1664355062,C;S;V;F,15.7,0x00c000,-36.8,0.00e-0
1664355063,C;S;V;F,15.5,0x00c000,-36.9,0.00e-0
1664355064,C;S;V;F,15.7,0x00c000,-36.8,0.00e-0
1664355065,C;S;V;F,15.6,0x00c000,-36.8,0.00e-0
1664355066,C;S;V;F,15.5,0x00c000,-36.9,0.00e-0
1664355067,C;S;V;F,15.5,0x00c000,-37.0,0.00e-0
1664355068,C;S;V;F,15.4,0x00c000,-37.0,0.00e-0
1664355069,C;S;V;F,15.5,0x00c000,-36.8,0.00e-0
1664355070,C;S;V;F,15.7,0x00c000,-36.7,0.00e-0
1664355071,,15.8,0x00c000,-36.7,
1664355072,C;S;V;F,15.6,0x00c000,-36.9,0.00e-0
1664355073,C;S;V;F,15.3,0x00c000,-36.9,0.00e-0
1664355074,C;S;V;F,15.2,0x00c000,-37.0,0.00e-0
1664355075,C;S;V;F,,0x00c000,-37.2,0.00e-0
1664355076,C;S;V;F,15.2,0x00c000,,0.00e-0
1664355077,C;S;V;F,15.2,0x00c000,-37.4,0.00e-0
1664355078,C;S;V;F,14.7,0x00c000,-37.6,0.00e-0
1664355079,C;S;V;F,14.5,0x00c000,-37.7,0.00e-0
1664355080,C;S;V;F,15.1,0x00c000,-37.4,0.00e-0
1664355081,C;S;V;F,15.4,0x00c000,-37.0,0.00e-0
1664355082,C;S;V;F,15.4,0x00c000,-37.0,0.00e-0
1664355083,C;S;V;F,15.6,0x00c000,-36.7,0.00e-0
1664355084,C;S;V;F,15.4,0x00c000,-36.4,0.00e-0
1664355085,C;S;V;F,15.5,0x00c000,-36.8,0.00e-0
1664355086,C;S;V;F,15.6,0x00c000,-36.7,0.00e-0
1664355087,C;S;V;F,15.5,0x00c000,-36.7,
1664355088,,15.4,0x00c000,-36.7,0.00e-0
1664355089,C;S;V;F,15.6,0x00c000,-36.7,0.00e-0
1664355090,C;S;V;F,15.8,0x00c000,-36.6,0.00e-0
1664355091,C;S;V;F,15.8,0x00c000,-36.7,0.00e-0
1664355092,C;S;V;F,15.7,0x00c000,-36.4,0.00e-0
1664355093,C;S;V;F,,0x00c000,-36.4,0.00e-0
1664355094,C;S;V;F,15.7,0x00c000,-36.4,0.00e-0
1664355095,C;S;V;F,15.7,0x00c000,,0.00e-0
1664355096,C;S;V;F,15.8,0x00c000,-36.4,0.00e-0
1664355097,C;S;V;F,15.8,0x00c000,-36.2,0.00e-0
1664355098,C;S;V;F,15.9,0x00c000,-36.3,0.00e-0
1664355099,C;S;V;F,16.0,0x00c000,-36.2,0.00e-0
1664355100,C;S;V;F,16.2,0x00c000,-36.1,0.00e-0
1664355101,C;S;V;F,16.3,0x00c000,-36.1,0.00e-0
1664355102,C;S;V;F,16.3,0x00c000,-36.1,0.00e-0
1664355103,C;S;V;F,16.1,0x00c000,-35.9,0.00e-0
1664355104,C;S;V;F,16.2,0x00c000,-36.0,0.00e-0
1664355106,,16.4,0x00c000,-36.0,
1664355107,C;S;V;F,,0x00c000,-35.8,0.00e-0
1664355108,C;S;V;F,16.4,0x00c000,,0.00e-0
1664355109,C;S;V;F,16.2,0x00c000,-36.0,0.00e-0
1664355110,C;S;V;F,16.4,0x00c000,-35.9,0.00e-0
1664355111,C;S;V;F,16.5,0x00c000,-35.6,0.00e-0
1664355112,C;S;V;F,16.8,0x00c000,-35.2,0.00e-0
1664355113,C;S;V;F,16.9,0x00c000,-34.9,0.00e-0
1664355114,C;S;V;F,16.9,0x00c000,-34.9,0.00e-0
1664355115,C;S;V;F,17.0,0x00c000,-35.0,0.00e-0
1664355116,C;S;V;F,16.8,0x00c000,-35.2,0.00e-0
1664355117,C;S;V;F,16.9,0x00c000,-35.2,0.00e-0
1664355118,C;S;V;F,16.8,0x00c000,-35.2,
1664355119,C;S;V;F,17.0,0x00c000,-35.1,0.00e-0
1664355120,,17.4,0x00c000,-34.8,0.00e-0
1664355121,C;S;V;F,17.4,0x00c000,-34.8,0.00e-0
1664355122,C;S;V;F,17.4,0x00c000,-34.8,0.00e-0
1664355123,C;S;V;F,,0x00c000,-34.3,0.00e-0
1664355124,C;S;V;F,17.7,0x00c000,-34.3,0.00e-0
1664355125,C;S;V;F,17.7,0x00c000,,0.00e-0
1664355126,C;S;V;F,17.7,0x00c000,-34.3,0.00e-0
1664355127,C;S;V;F,17.6,0x00c000,-34.3,0.00e-0
1664355128,C;S;V;F,17.6,0x00c000,-34.4,0.00e-0
1664355129,C;S;V;F,17.6,0x00c000,-34.4,0.00e-0
1664355130,C;S;V;F,17.8,0x00c000,-34.2,0.00e-0
1664355131,C;S;V;F,17.8,0x00c000,-33.9,0.00e-0
1664355132,C;S;V;F,17.9,0x00c000,-33.9,0.00e-0
1664355133,C;S;V;F,17.9,0x00c000,-33.7,0.00e-0
1664355134,C;S;V;F,18.0,0x00c000,-33.5,0.00e-0
1664355135,C;S;V;F,17.9,0x00c000,-33.3,0.00e-0
1664355136,C;S;V;F,18.1,0x00c000,-33.3,
1664355137,C;S;V;F,18.2,0x00c000,-33.2,0.00e-0
1664355138,,18.2,0x00c000,-33.2,0.00e-0
1664355139,C;S;V;F,18.1,0x00c000,-33.5,0.00e-0
1664355140,C;S;V;F,18.1,0x00c000,-33.5,0.00e-0
1664355141,C;S;V;F,,0x00c000,-33.4,0.00e-0
1664355142,C;S;V;F,18.2,0x00c000,,0.00e-0
1664355143,C;S;V;F,18.3,0x00c000,-33.2,0.00e-0
1664355144,C;S;V;F,18.2,0x00c000,-33.1,0.00e-0
1664355145,C;S;V;F,18.4,0x00c000,-33.1,0.00e-0
1664355146,C;S;V;F,18.4,0x00c000,-32.8,0.00e-0
1664355147,C;S;V;F,18.4,0x00c000,-32.7,0.00e-0
1664355148,C;S;V;F,18.5,0x00c000,-32.8,0.00e-0
1664355149,C;S;V;F,18.7,0x00c000,-32.5,0.00e-0
1664355150,C;S;V;F,18.8,0x00c000,-32.7,0.00e-0
1664355151,C;S;V;F,18.6,0x00c000,-32.6,0.00e-0
1664355152,C;S;V;F,18.5,0x00c000,-32.5,
1664355153,,18.5,0x00c000,-32.7,0.00e-0
1664355154,C;S;V;F,18.4,0x00c000,-32.8,0.00e-0
1664355155,C;S;V;F,18.5,0x00c000,-32.8,0.00e-0
1664355156,C;S;V;F,18.6,0x00c000,-32.6,0.00e-0
1664355157,C;S;V;F,,0x00c000,-32.6,0.00e-0
1664355158,C;S;V;F,18.6,0x00c000,-32.5,0.00e-0
1664355159,C;S;V;F,18.6,0x00c000,,0.00e-0
1664355160,C;S;V;F,18.4,0x00c000,-32.5,0.00e-0
1664355161,C;S;V;F,18.5,0x00c000,-32.6,0.00e-0
1664355162,C;S;V;F,18.6,0x00c000,-32.4,0.00e-0
1664355163,C;S;V;F,18.5,0x00c000,-32.6,0.00e-0
1664355164,C;S;V;F,18.5,0x00c000,-32.7,0.00e-0
1664355165,C;S;V;F,18.4,0x00c000,-32.8,0.00e-0
1664355166,C;S;V;F,18.6,0x00c000,-32.8,0.00e-0
1664355168,C;S;V;F,18.3,0x00c000,-33.1,0.00e-0
1664355169,,18.3,0x00c000,-33.0,
1664355170,C;S;V;F,18.5,0x00c000,-33.0,0.00e-0
1664355171,C;S;V;F,,0x00c000,-33.2,0.00e-0
1664355172,C;S;V;F,18.4,0x00c000,-33.0,0.00e-0
1664355173,C;S;V;F,18.3,0x00c000,,0.00e-0
1664355174,C;S;V;F,18.2,0x00c000,-33.1,0.00e-0
1664355175,C;S;V;F,18.3,0x00c000,-33.1,0.00e-0
1664355176,C;S;V;F,18.1,0x00c000,-33.2,0.00e-0
1664355177,C;S;V;F,18.2,0x00c000,-33.2,0.00e-0
1664355178,C;S;V;F,18.0,0x00c000,-33.3,0.00e-0
1664355179,C;S;V;F,18.1,0x00c000,-33.3,0.00e-0
1664355180,C;S;V;F,18.0,0x00c000,-33.2,0.00e-0
1664355181,C;S;V;F,18.0,0x00c000,-33.5,0.00e-0
1664355182,C;S;V;F,17.9,0x00c000,-33.6,
1664355183,,18.0,0x00c000,-33.5,0.00e-0
1664355184,C;S;V;F,17.9,0x00c000,-33.8,0.00e-0
1664355185,C;S;V;F,17.9,0x00c000,-33.8,0.00e-0
1664355186,C;S;V;F,,0x00c000,-34.0,0.00e-0
1664355187,C;S;V;F,17.6,0x00c000,-34.0,0.00e-0
1664355188,C;S;V;F,17.7,0x00c000,,0.00e-0
1664355189,C;S;V;F,17.6,0x00c000,-34.0,0.00e-0
1664355190,C;S;V;F,17.6,0x00c000,-34.1,0.00e-0
1664355191,C;S;V;F,17.2,0x00c000,-34.4,0.00e-0
1664355192,C;S;V;F,17.3,0x00c000,-34.3,0.00e-0
1664355193,C;S;V;F,17.3,0x00c000,-34.3,0.00e-0
1664355194,C;S;V;F,17.5,0x00c000,-34.5,0.00e-0
1664355195,C;S;V;F,17.0,0x00c000,-34.4,0.00e-0
1664355196,C;S;V;F,17.4,0x00c000,-34.4,0.00e-0
1664355197,C;S;V;F,17.1,0x00c000,-34.3,0.00e-0
1664355198,C;S;V;F,17.4,0x00c000,-34.2,0.00e-0
1664355199,C;S;V;F,17.1,0x00c000,-34.0,
1664355200,,17.4,0x00c000,-34.1,0.00e-0
1664355201,C;S;V;F,17.5,0x00c000,-34.3,0.00e-0
1664355202,C;S;V;F,17.3,0x00c000,-34.4,0.00e-0
1664355203,C;S;V;F,,0x00c000,-34.4,0.00e-0
1664355204,C;S;V;F,17.2,0x00c000,,0.00e-0
1664355205,C;S;V;F,17.3,0x00c000,-34.7,0.00e-0
1664355206,C;S;V;F,17.0,0x00c000,-34.7,0.00e-0
1664355207,C;S;V;F,17.2,0x00c000,-34.7,0.00e-0
1664355208,C;S;V;F,17.2,0x00c000,-34.8,0.00e-0
1664355209,C;S;V;F,17.3,0x00c000,-34.7,0.00e-0
1664355210,C;S;V;F,17.0,0x00c000,-34.7,0.00e-0
1664355211,C;S;V;F,16.9,0x00c000,-34.7,0.00e-0